Location: Lugano
(46.0000°N, 8.9670°E)
Time: 16:24:55
(UTC+02:00)

Envisat - Pass Details

Date: 16 March 2026
Orbit: 761 x 762 km, 98.4° (Epoch: 19 April)

Event Time Altitude Azimuth Distance (km) Brightness Sun altitude
Rises 04:45:19 0° 359° (N) 3,236 6.5 -19.6°
Reaches altitude 10° 04:48:29 10° 338° (NNW) 2,304 5.4 -19.1°
Enters shadow 04:50:57 16° 309° (NW) 1,944 4.8 -18.7°
